RH
81 81 82 82 83 83 83 82 83 83 83 84 83 84 84 74 72 45 49 57 41 39 46 48 45 49 48 42 48 55 55 57 55 62 64 66 67 60 67 75 80 71 73 74 54 60 64 55 44 61 86 47 43 40
81 80 80 81 81 82 82 83 82 80 81 84 84 82 82 83 70 57 36 47 46 42 45 46 42 40 42 39 43 56 52 47 63 72 56 47 62 66 54 75 42 81 88 68 82 87 85 59 100 61 49 44 38 37
77 79 79 79 80 80 81 81 81 82 81 79 80 83 81 81 80 60 40 45 39 40 39 39 40 40 42 45 44 47 47 47 55 51 52 47 62 49 61 59 48 48 39 48 64 62 52 45 40 40 40 42 31 31
76 76 76 76 77 77 78 79 80 81 81 80 78 80 82 78 78 67 48 53 38 33 62 37 30 36 32 43 47 47 50 58 57 47 51 51 52 43 44 50 46 35 44 44 43 37 38 36 32 35 35 35 33 31
78 77 76 76 75 75 76 78 79 79 79 79 78 78 80 75 69 55 51 55 50 48 47 32 35 31 33 47 48 49 53 55 45 57 58 48 34 44 34 38 41 35 47 52 65 36 35 32 33 32 34 33 30 29
83 81 78 77 76 75 74 74 75 78 79 78 77 77 79 78 54 32 93 44 55 48 62 53 30 34 36 38 47 50 48 45 37 44 42 33 41 37 39 34 26 32 31 30 24 24 27 26 30 29 31 28 25 28
91 88 86 83 80 78 77 76 75 75 76 78 80 80 80 76 48 60 45 51 69 61 62 52 31 36 34 36 38 41 50 40 40 42 43 32 35 46 52 36 20 24 28 29 25 26 32 26 28 28 28 26 32 26
96 95 94 92 88 85 81 79 77 75 74 76 80 80 73 75 65 55 56 70 67 58 53 65 43 35 38 39 43 39 41 43 44 38 38 37 37 41 58 27 20 21 25 28 28 24 20 24 20 24 25 25 28 30
85 88 94 96 95 93 88 83 78 76 75 76 76 58 47 45 80 52 77 62 62 62 70 52 46 63 38 40 37 45 42 56 40 49 40 36 39 51 34 23 20 24 28 26 26 25 19 24 22 23 27 28 31 29
86 88 89 91 93 96 93 86 80 77 77 76 45 92 100 65 75 66 58 90 95 89 70 58 43 44 39 39 40 43 46 51 60 46 45 52 41 26 23 20 19 22 24 22 32 35 29 26 24 24 27 29 29 28
77 77 78 82 85 90 94 88 80 75 67 82 100 87 50 69 47 59 97 74 62 48 57 57 65 40 41 47 43 41 55 42 51 41 51 46 41 32 26 25 23 21 22 23 23 26 27 25 21 25 28 31 33 32
70 71 70 70 73 78 87 90 79 59 65 72 67 65 62 61 58 57 55 49 37 22 31 35 51 56 45 44 50 49 48 45 46 46 57 50 36 26 27 30 30 27 24 26 22 21 26 25 23 25 27 31 32 32
70 67 69 70 72 75 81 89 81 78 69 59 75 56 56 69 90 32 94 26 39 29 32 38 52 54 55 55 51 51 50 46 42 67 52 39 30 25 25 27 31 33 31 30 27 25 23 27 25 26 28 29 31 32
68 66 68 70 78 85 86 84 78 70 54 67 61 91 47 64 42 27 28 27 30 32 36 42 49 65 55 63 50 52 37 42 52 52 44 38 28 29 31 33 35 36 35 36 33 29 28 31 31 34 35 30 43 33
66 64 66 68 79 87 86 82 81 61 60 56 57 70 46 36 37 38 38 38 31 37 42 46 47 53 55 64 52 43 55 56 33 27 36 36 35 28 29 32 34 36 38 38 35 33 32 33 32 34 34 31 33 36
65 57 62 71 67 72 86 85 80 65 58 61 58 62 51 57 59 50 42 41 41 40 40 43 48 59 53 50 49 56 39 34 25 38 39 34 38 37 31 32 34 38 38 37 35 34 31 33 33 30 31 33 42 46
62 67 76 70 68 69 82 81 84 79 73 70 68 61 62 61 68 56 44 41 41 45 53 44 70 55 45 51 42 35 39 33 32 38 31 34 37 40 41 35 33 38 42 39 37 34 33 31 30 29 29 31 34 35
68 68 76 68 69 69 80 82 91 89 83 63 76 62 56 52 57 51 42 38 38 37 39 50 43 50 60 41 34 31 34 36 36 38 40 40 45 41 39 41 39 40 42 40 37 35 34 33 32 29 27 25 29 32
65 67 69 68 74 75 86 87 87 76 66 66 62 54 54 52 44 42 42 38 37 35 39 42 47 44 43 41 43 41 40 38 40 40 41 41 39 44 44 43 43 41 41 40 39 36 32 32 30 25 23 23 24 23
63 69 68 71 69 84 82 78 85 86 77 65 57 56 46 43 34 34 35 34 35 41 49 50 48 43 45 40 38 41 41 43 46 52 51 42 38 37 39 44 42 40 39 38 38 60 34 32 28 27 25 22 24 27
58 63 66 62 76 85 80 82 67 59 59 66 55 54 50 38 46 47 45 32 43 49 54 46 46 42 39 36 35 36 38 36 38 42 47 47 38 38 38 41 41 39 42 41 40 39 54 35 30 28 34 39 36 34
66 58 80 84 98 98 86 63 68 58 65 52 48 45 45 49 47 43 35 43 44 41 38 37 36 35 37 36 32 31 33 37 40 40 47 46 50 46 47 45 52 57 51 49 48 54 47 35 32 33 39 56 48 40
67 73 96 99 94 90 72 59 71 59 64 48 46 40 38 39 36 28 44 39 36 30 27 28 29 29 34 34 36 36 36 39 42 41 39 39 37 39 40 46 51 58 58 51 47 51 55 58 53 65 55 52 60 69
73 89 88 84 81 78 71 80 69 60 51 52 43 41 37 39 34 41 43 36 37 32 30 30 30 37 40 41 46 48 53 53 48 52 62 67 62 54 45 43 42 44 45 43 46 52 55 66 75 65 75 99 100 100
87 82 89 84 80 80 81 78 70 50 63 45 38 46 46 38 47 46 44 43 38 39 37 35 38 43 50 50 55 52 43 42 51 65 57 51 67 68 60 53 51 48 44 52 60 62 72 79 87 82 80 100 95 100
86 76 89 75 79 77 66 84 83 74 49 51 43 34 37 46 56 59 39 44 41 48 56 55 55 52 56 54 51 51 48 45 50 59 57 59 66 82 90 87 78 70 58 57 61 74 72 74 92 89 92 80 84 96
85 80 69 49 52 52 62 56 42 46 56 61 47 47 50 72 70 42 35 36 41 49 48 50 52 55 55 54 51 49 51 50 50 54 56 61 68 74 90 96 96 89 73 67 68 83 94 93 95 92 100 97 97 100
78 64 79 60 59 52 68 58 57 63 51 37 40 60 63 59 48 38 39 43 50 53 57 59 60 62 66 66 64 66 65 62 60 61 66 68 66 71 72 75 78 89 88 85 82 96 92 100 100 100 100 100 100 100
84 59 53 82 72 57 60 62 52 36 32 36 62 56 48 36 44 49 48 53 58 64 67 70 79 73 68 63 64 64 64 66 70 82 84 82 78 73 68 74 79 78 81 90 88 92 95 98 99 100 100 100 100 100
72 52 69 79 87 80 65 48 57 47 36 35 40 45 44 48 51 48 57 62 66 77 84 86 91 93 94 91 88 82 83 82 78 81 88 84 76 71 77 96 100 100 99 100 100 94 95 99 99 100 100 100 100 100
51 61 67 62 68 61 65 72 78 64 68 77 74 77 66 62 60 54 52 56 66 97 98 96 97 98 100 99 98 96 92 91 87 85 82 82 86 96 96 98 100 100 100 100 100 100 100 100 100 100 100 100 100 100
75 74 75 78 68 73 72 76 75 75 77 79 77 75 77 77 72 54 65 88 99 93 87 89 94 93 92 93 97 98 98 95 85 82 85 86 93 100 98 93 99 100 100 100 100 100 100 100 100 100 100 100 100 100
81 84 78 76 72 67 72 83 63 62 66 70 68 67 74 70 67 69 66 73 79 77 87 92 93 91 86 86 92 97 97 98 95 84 82 82 84 88 95 99 100 100 100 100 100 100 100 100 100 100 100 100 100 100
Wind_Speed
15 14 15 15 15 14 14 14 14 14 14 14 15 14 12 6 1 0 4 3 3 1 5 6 5 5 5 5 3 5 5 5 4 5 3 2 4 1 4 3 4 4 4 5 4 5 5 11 10 7 2 2 4 3
12 13 14 14 13 13 13 14 14 13 14 14 14 14 14 12 6 4 3 1 2 1 4 2 3 3 4 1 3 6 2 3 4 4 3 2 4 3 5 3 6 5 5 3 5 2 3 16 2 10 6 6 4 3
12 13 13 13 13 13 14 14 13 13 13 13 13 14 14 13 12 8 3 2 1 2 3 5 6 6 5 6 4 4 4 2 4 3 2 2 6 3 4 4 5 6 8 6 3 5 12 13 13 10 10 9 6 5
11 11 11 12 12 12 13 13 13 13 13 13 13 13 13 12 10 6 3 3 2 1 2 4 3 4 5 6 7 3 3 5 3 4 4 4 5 4 3 6 9 5 10 9 10 11 6 14 16 14 14 11 9 7
10 10 11 11 11 11 11 12 12 13 14 14 14 13 12 9 7 6 4 4 3 3 3 1 1 6 6 7 8 6 6 6 5 4 4 5 2 3 5 5 10 11 10 8 6 9 9 8 17 16 14 14 12 9
8 9 9 9 10 10 11 11 12 12 12 12 13 14 14 12 5 2 3 3 4 4 2 3 3 3 6 6 7 7 6 4 4 3 4 4 0 4 4 6 8 17 13 12 3 8 10 4 16 18 16 13 12 9
9 9 9 9 10 10 11 12 12 13 14 13 13 12 11 10 4 2 4 5 6 3 2 4 2 4 3 6 4 4 4 3 4 4 5 7 5 5 5 8 6 15 18 15 8 13 11 12 12 17 16 14 11 10
11 9 8 8 9 10 11 12 13 15 15 16 15 11 5 5 7 2 3 5 5 2 2 3 1 3 5 5 4 2 4 4 5 5 2 5 4 6 11 18 11 9 15 17 17 17 6 13 12 18 16 14 14 13
14 14 12 10 9 9 10 11 14 17 18 17 12 4 2 1 2 2 7 2 2 2 2 2 3 2 2 1 2 4 3 4 2 5 5 4 6 13 17 13 14 17 17 13 19 18 13 17 19 18 18 17 16 14
17 16 14 16 16 12 11 12 15 19 19 11 3 3 4 2 8 5 3 1 1 1 1 3 2 2 4 3 4 2 3 4 4 5 4 6 11 19 20 18 14 14 19 14 22 21 20 18 21 21 21 17 16 14
16 18 18 17 17 18 14 12 16 19 5 5 5 2 3 5 3 1 1 1 1 2 3 2 3 3 4 4 4 3 2 3 5 4 5 5 6 10 6 10 16 16 18 21 24 19 20 17 18 19 19 18 16 15
15 14 18 19 19 18 18 12 14 6 3 5 5 4 3 2 1 2 1 1 4 2 1 3 1 3 2 3 4 4 4 1 6 3 4 6 7 5 6 6 8 12 18 21 21 20 19 21 18 18 18 18 17 16
13 15 17 20 20 19 17 13 10 10 10 2 3 2 3 1 0 1 2 2 2 1 1 2 2 3 3 4 3 4 5 6 0 4 6 6 9 11 12 10 7 7 13 18 20 20 18 18 19 19 18 17 16 15
9 13 18 22 22 18 13 7 11 8 4 2 3 4 2 3 5 2 2 4 4 4 4 4 4 3 2 4 3 5 4 3 5 5 8 3 12 13 13 10 9 9 10 14 18 19 20 18 19 18 17 16 13 15
10 4 15 19 22 20 14 11 12 4 3 2 2 4 4 3 2 3 3 4 2 4 4 3 5 4 3 5 5 4 5 7 6 6 1 5 12 13 12 11 10 9 8 10 14 17 19 18 18 17 17 16 16 15
7 1 9 18 18 16 14 9 5 3 2 2 3 3 3 4 2 2 3 4 5 4 4 5 5 4 8 6 8 9 5 7 3 1 5 9 10 13 14 12 11 10 10 10 11 15 16 18 19 17 16 17 15 14
4 5 13 16 17 14 9 4 3 2 3 3 3 3 5 5 6 7 6 6 4 7 7 5 6 11 4 7 7 5 6 9 7 7 8 12 14 16 13 13 12 11 10 10 10 13 14 14 15 15 18 17 17 17
3 6 11 14 13 4 3 3 2 2 5 5 4 2 3 5 6 8 7 7 8 8 9 12 9 15 13 17 16 10 9 7 8 9 9 13 14 12 11 15 13 10 11 10 10 11 12 13 15 14 16 16 15 16
6 8 11 10 5 3 3 3 2 3 5 5 6 6 5 6 7 9 9 9 9 9 8 7 12 12 14 15 16 14 14 14 13 14 13 15 15 13 14 14 14 11 10 11 10 8 9 13 12 11 11 12 13 12
5 7 8 7 7 2 2 1 2 4 4 3 5 6 6 7 8 9 10 10 9 9 9 10 14 15 15 15 16 16 16 15 16 17 17 14 15 20 17 14 12 14 13 11 9 7 8 8 9 10 11 12 12 14
3 3 3 5 3 3 3 2 4 3 5 4 6 6 7 8 9 10 10 9 10 12 15 15 17 16 20 18 15 15 18 18 18 17 18 17 14 15 14 13 14 12 12 11 9 8 7 7 6 7 10 11 12 13
1 3 2 2 2 2 4 3 4 5 4 5 6 5 6 7 10 10 10 12 12 14 14 15 15 16 17 21 19 21 21 23 22 19 20 18 16 14 13 12 10 11 13 12 10 10 11 11 10 8 9 10 10 12
1 0 0 1 2 3 4 2 5 4 4 4 3 4 5 8 6 5 6 8 12 12 14 15 19 22 22 23 23 23 23 24 18 18 17 16 16 15 14 14 12 13 13 14 12 12 11 10 9 7 8 8 9 9
0 2 3 3 5 3 2 4 4 5 4 5 5 9 12 7 5 8 14 14 12 12 13 18 14 13 15 18 14 14 12 12 14 13 15 16 16 15 16 15 14 13 14 13 13 11 10 8 7 7 7 6 8 8
3 5 4 6 5 5 5 5 5 5 5 7 11 12 7 4 6 11 20 15 9 9 11 10 11 12 14 13 13 14 17 13 12 15 14 13 14 15 16 16 15 14 12 13 14 13 10 8 8 9 10 9 12 13
7 7 9 8 5 7 7 5 6 7 6 5 6 5 5 7 7 9 10 11 9 10 10 11 13 14 15 14 14 13 15 13 11 13 17 15 13 13 15 16 15 14 11 12 14 14 13 12 10 14 13 13 15 14
9 9 7 6 4 5 4 6 6 5 5 6 5 4 4 6 9 7 11 12 15 15 15 15 14 15 16 16 15 15 14 14 15 14 15 16 15 15 13 13 16 13 13 16 13 14 14 13 12 13 12 11 12 12
10 7 11 9 8 7 7 4 4 6 6 5 4 6 6 7 15 16 17 19 18 17 17 16 15 14 15 15 16 15 15 14 14 15 15 16 16 15 17 14 14 18 13 13 12 11 13 11 12 12 11 12 11 9
7 6 8 7 9 7 8 9 8 7 8 8 11 17 21 15 16 18 18 17 17 15 17 16 14 12 13 13 14 14 13 12 16 23 25 18 17 14 11 12 11 12 10 10 12 11 14 14 13 13 14 12 10 9
10 10 7 8 8 12 8 10 10 11 9 11 13 18 18 17 17 14 13 15 15 14 13 13 13 12 13 14 16 18 12 11 12 15 17 18 17 15 13 10 9 8 7 7 9 10 8 9 7 3 8 8 7 8
5 11 9 11 9 10 14 12 10 11 11 13 14 16 19 18 18 14 10 8 8 7 11 14 12 12 13 13 12 15 18 10 12 16 17 15 15 14 14 13 10 8 7 7 6 6 7 6 7 9 11 13 14 13
8 12 8 8 9 10 8 8 10 10 10 11 14 15 13 13 16 10 2 4 7 10 14 12 12 15 18 15 14 12 18 15 16 16 20 15 14 13 14 12 11 8 7 7 5 5 6 9 8 8 9 13 14 15
7 4 5 6 6 6 5 4 5 8 9 10 13 15 11 8 9 1 2 4 7 12 12 11 11 13 19 19 17 15 15 12 16 18 21 21 21 18 13 11 10 8 10 9 9 7 8 9 9 10 11 13 12 12
Wind_Direction
53 49 47 44 42 39 37 37 33 30 28 26 28 32 32 39 84 182 83 13 309 78 148 203 176 158 158 217 211 117 182 198 202 239 256 234 258 164 255 221 198 225 216 214 229 246 254 152 161 224 73 178 226 245
55 51 49 46 41 39 37 29 25 29 29 24 22 24 26 27 14 298 110 79 317 5 63 184 224 280 274 273 200 183 328 177 188 234 237 274 241 228 267 280 197 233 226 297 233 275 130 182 160 206 202 244 235 263
49 46 44 42 39 33 29 26 25 22 18 20 23 19 15 16 20 20 85 44 227 175 151 197 197 169 204 218 241 219 194 221 204 294 285 287 261 225 255 241 244 221 210 239 259 231 211 198 215 215 214 232 229 237
50 46 43 40 35 30 27 23 17 13 11 12 13 14 15 15 16 11 39 21 324 340 246 145 147 198 162 185 203 244 91 131 96 220 236 250 260 195 263 283 257 252 163 226 243 243 212 218 213 207 212 219 226 229
49 43 37 34 30 26 21 16 11 8 5 2 360 2 8 11 15 63 65 30 11 315 319 320 227 197 170 179 185 184 190 187 191 196 225 241 278 247 238 281 238 182 196 194 225 198 201 200 199 201 202 206 212 213
49 45 40 31 24 19 13 7 2 359 357 354 353 352 348 352 310 265 17 90 13 338 291 275 76 195 166 182 176 179 184 212 242 235 246 245 125 250 269 255 239 198 208 209 219 180 193 178 181 193 203 205 205 212
39 29 23 19 15 10 5 358 352 346 342 339 336 334 336 333 322 349 6 11 347 306 274 288 214 115 197 170 169 175 186 216 252 247 238 251 198 215 254 252 243 197 202 202 192 162 192 183 185 191 201 204 201 216
37 29 19 9 5 1 355 349 343 338 333 330 326 325 337 96 122 162 54 3 319 312 281 288 275 196 187 198 222 219 209 208 210 241 197 227 151 226 251 239 245 207 197 197 194 198 205 185 187 190 197 199 205 209
37 31 23 12 3 357 349 344 339 332 327 324 319 306 189 23 42 37 343 317 10 338 304 285 295 22 209 178 218 188 256 241 149 235 227 212 212 227 240 256 231 205 197 198 196 200 196 193 197 193 196 202 208 210
39 31 27 21 11 355 346 345 339 330 323 319 343 38 6 23 319 264 193 76 18 346 149 227 255 214 232 204 191 256 210 247 248 212 143 230 252 254 253 251 246 217 204 193 186 201 205 205 199 197 199 202 208 212
34 35 27 21 14 6 349 347 342 329 5 28 8 16 329 303 250 332 353 359 3 241 192 234 255 236 174 213 213 219 256 243 258 136 243 242 260 248 267 260 244 227 212 209 210 208 208 204 200 198 200 202 204 209
22 25 20 15 9 4 357 348 347 356 13 316 291 290 281 323 352 336 311 269 243 314 182 272 261 250 186 219 232 173 252 229 252 114 254 259 258 310 318 291 268 243 223 217 214 215 204 205 204 203 202 202 204 206
38 32 20 11 3 353 346 346 338 318 291 210 239 263 319 339 344 211 271 198 255 204 210 242 246 270 217 244 217 210 236 238 22 231 243 255 311 328 330 314 289 255 227 224 221 215 212 208 204 203 202 203 203 206
22 24 16 9 357 348 348 351 341 331 296 5 339 311 266 211 247 236 322 345 20 310 320 289 280 261 243 236 237 246 222 216 242 238 238 331 355 337 332 332 307 279 239 230 222 216 210 207 204 202 206 200 199 204
7 57 15 12 10 21 18 358 341 321 314 284 245 239 232 310 321 332 319 296 300 305 279 263 247 241 222 260 220 270 235 245 237 242 249 344 334 334 331 326 323 298 272 248 230 219 211 206 207 203 203 205 198 205
12 5 10 354 358 353 351 332 339 319 296 277 239 266 249 279 306 354 6 6 13 332 294 252 270 244 231 227 193 217 242 227 275 276 323 321 327 335 338 329 321 309 284 267 245 225 218 211 209 208 202 205 203 200
359 22 339 339 345 338 344 316 341 314 305 262 249 272 276 283 279 292 301 303 330 308 298 291 252 231 310 236 214 221 248 283 294 301 319 328 327 325 320 317 315 310 289 268 252 229 225 222 212 210 210 205 205 211
25 336 329 336 341 346 352 11 346 317 262 249 258 289 253 276 283 284 287 294 294 288 281 265 280 268 265 266 260 267 261 267 280 293 311 315 324 331 330 322 317 314 300 281 259 245 229 221 217 218 217 213 210 215
344 340 341 348 355 339 14 26 359 276 259 287 270 271 262 267 268 278 284 283 280 282 279 265 248 243 243 249 270 278 281 286 302 309 305 300 308 315 321 321 320 317 309 299 275 247 243 231 230 226 221 213 220 217
356 17 8 4 338 339 340 207 290 262 266 298 285 266 261 270 279 283 277 275 276 272 243 237 247 258 273 282 290 296 294 297 296 290 287 294 302 303 298 296 300 309 309 303 282 262 251 240 235 235 237 228 224 225
323 24 9 342 349 349 307 294 249 252 297 273 295 283 268 269 261 268 274 284 267 249 256 251 263 268 272 278 282 284 284 286 282 283 290 292 294 289 289 286 282 283 285 285 280 265 226 252 266 247 238 235 236 230
259 275 331 0 275 332 276 240 276 320 261 264 283 245 268 265 269 270 274 261 261 259 267 274 275 279 277 278 282 282 286 288 286 283 282 276 273 278 279 278 269 264 264 269 268 261 266 278 281 274 257 241 230 241
242 357 226 244 268 239 266 252 250 255 263 264 259 263 257 284 272 290 254 249 272 280 278 275 277 282 282 285 283 281 278 281 283 277 274 274 271 268 271 269 260 258 259 261 259 265 264 258 255 238 248 246 239 238
205 237 225 230 219 255 244 238 224 258 240 245 242 278 290 275 268 268 272 276 285 291 284 286 287 284 283 288 289 286 290 288 290 292 292 286 282 278 274 272 268 260 256 255 255 245 251 253 248 247 229 220 212 225
241 224 216 218 213 221 216 227 233 234 239 244 281 280 265 256 247 277 280 274 293 301 290 289 285 275 277 280 279 277 280 280 283 286 284 282 285 277 271 270 267 264 261 259 255 248 238 246 247 250 236 212 223 223
238 206 206 200 208 207 202 221 216 217 256 269 254 259 281 278 259 256 274 289 303 291 285 285 287 282 271 262 263 274 281 283 284 281 278 281 282 287 283 268 266 265 259 257 255 254 246 240 239 246 242 234 230 230
232 232 212 222 223 195 236 252 256 268 243 239 246 262 251 259 243 244 284 306 306 306 298 290 281 276 275 274 275 273 271 271 274 277 284 282 275 269 268 274 273 269 269 263 250 235 232 235 240 239 237 237 233 222
218 233 205 197 213 220 239 245 225 223 229 226 228 218 230 248 278 294 296 296 300 302 299 294 288 281 276 277 275 276 274 281 286 283 276 271 265 264 263 266 266 259 253 256 257 223 229 228 231 234 233 233 237 226
217 216 199 218 217 228 225 213 217 220 222 235 259 263 270 271 283 285 292 298 298 297 295 297 301 290 280 274 271 272 275 280 285 284 284 280 283 278 273 262 264 273 263 260 247 234 227 222 224 227 231 236 240 240
217 201 216 192 200 216 216 213 231 237 247 262 277 281 280 277 277 285 300 293 291 289 291 304 304 296 288 287 285 280 268 267 258 257 266 269 275 284 284 276 270 265 251 249 253 262 235 227 238 231 234 228 218 221
193 187 222 229 241 236 242 252 264 263 265 262 261 265 271 287 291 299 289 298 310 316 322 322 322 317 314 298 283 282 289 276 262 257 255 263 269 273 276 270 266 257 255 251 247 241 240 227 229 233 234 233 231 225
194 209 211 228 252 250 255 254 253 248 257 261 265 270 278 278 281 278 56 356 346 337 325 319 324 321 319 311 307 285 264 274 280 277 275 269 271 272 273 272 273 259 244 242 229 238 248 253 248 237 240 243 239 231
211 197 216 245 245 244 222 228 252 263 253 261 266 276 275 261 267 212 165 74 15 345 325 311 300 313 315 315 318 316 330 316 300 288 280 275 268 268 272 275 271 257 251 246 237 216 229 252 257 249 246 244 243 236